Weather History for Blair, NE

Change the Weather History Date:

Thursday, February 28, 2013

  Actual Average (KOMA) Record (KOMA)
Temperature  
Mean Temperature 28 °F 33 °F  
Max Temperature 31 °F 43 °F 77 °F (1972)
Min Temperature 25 °F 22 °F -14 °F (1962)
Degree Days  
Heating Degree Days 36 32  
Month to date heating degree days 1032  
Since 1 July heating degree days 4798  
Cooling Degree Days 0 0  
Month to date cooling degree days 0  
Year to date cooling degree days 0  
Moisture  
Dew Point 23 °F    
Average Humidity 80    
Maximum Humidity 83    
Minimum Humidity 72    
Precipitation  
Precipitation 0.00 in 0.04 in 0.90 in (2012)
Month to date precipitation 0.85  
Year to date precipitation 1.57  
Snow  
Snow 0.00 in 0.20 in - ()
Month to date snowfall 6.1  
Since 1 July snowfall 21.2  
Snow Depth -    
Sea Level Pressure  
Sea Level Pressure 30.16 in    
Wind  
Wind Speed 16 mph (NW)    
Max Wind Speed 22 mph    
Max Gust Speed 30 mph    
Visibility 10 miles    
Events      
T = Trace of Precipitation, MM = Missing Value Source: NWS Daily Summary

Daily Weather History Graph

Daily Weather History Graph

Search for Another Location

Airport:

Trip Planner

Search our weather history database for the weather conditions in past years. The results will help you decide how hot, cold, wet, or windy it might be!

Date:

Astronomy

Feb. 28, 2013 Rise Set
Actual Time 7:00 AM CST 6:14 PM CST
Civil Twilight 6:32 AM CST 6:42 PM CST
Nautical Twilight 6:00 AM CST 7:14 PM CST
Astronomical Twilight 5:28 AM CST 7:46 PM CST
Moon 9:45 PM CST (2/28) 8:07 AM CST (2/28)
Length of Visible Light 12h 09m
Length of Day
11h 14m
Waning Gibbous, 90% of the Moon is Illuminated
Feb 28
Waning Gibbous
Mar 4
Last Quarter
Mar 11
New
Mar 19
First Quarter
Mar 27
Full

Hourly Weather History & Observations

Time (CST) Temp. Windchill Dew Point Humidity Pressure Visibility Wind Dir Wind Speed Gust Speed Precip Events Conditions
12:15 AM 29.1 °F 15.7 °F 23.9 °F 81% 30.08 in 10.0 mi NNW 21.9 mph 29.9 mph N/A   Overcast
12:55 AM 28.4 °F 15.8 °F 23.4 °F 81% 30.08 in 10.0 mi NW 18.4 mph 26.5 mph N/A   Overcast
1:15 AM 28.0 °F 14.6 °F 23.0 °F 81% 30.08 in 10.0 mi NNW 20.7 mph 29.9 mph N/A   Overcast
1:35 AM 28.0 °F 15.3 °F 23.0 °F 81% 30.09 in 10.0 mi NW 18.4 mph 23.0 mph N/A   Overcast
1:55 AM 28.2 °F 16.3 °F 23.0 °F 81% 30.09 in 10.0 mi NNW 16.1 mph 23.0 mph N/A   Overcast
2:15 AM 28.2 °F 15.9 °F 23.0 °F 81% 30.09 in 10.0 mi NNW 17.3 mph 25.3 mph N/A   Overcast
2:35 AM 28.4 °F 16.2 °F 23.0 °F 80% 30.09 in 10.0 mi NNW 17.3 mph 24.2 mph N/A   Overcast
2:55 AM 28.4 °F 15.4 °F 23.0 °F 80% 30.08 in 10.0 mi NNW 19.6 mph 23.0 mph N/A   Overcast
3:15 AM 28.4 °F 16.6 °F 23.0 °F 80% 30.09 in 10.0 mi NNW 16.1 mph 23.0 mph N/A   Overcast
3:35 AM 28.4 °F 17.5 °F 23.2 °F 81% 30.09 in 10.0 mi NNW 13.8 mph - N/A   Overcast
3:55 AM 28.6 °F 18.2 °F 23.4 °F 81% 30.10 in 10.0 mi NNW 12.7 mph - N/A   Overcast
4:15 AM 28.4 °F 17.0 °F 23.4 °F 81% 30.10 in 10.0 mi NW 15.0 mph - N/A   Overcast
4:35 AM 28.4 °F 16.6 °F 23.4 °F 81% 30.10 in 10.0 mi NW 16.1 mph - N/A   Overcast
4:55 AM 28.4 °F 17.0 °F 23.0 °F 80% 30.11 in 10.0 mi NW 15.0 mph - N/A   Overcast
5:15 AM 28.4 °F 17.0 °F 23.2 °F 81% 30.12 in 10.0 mi NW 15.0 mph 19.6 mph N/A   Overcast
5:35 AM 28.2 °F 16.3 °F 23.0 °F 81% 30.12 in 10.0 mi NW 16.1 mph 20.7 mph N/A   Overcast
5:55 AM 28.2 °F 16.8 °F 23.4 °F 82% 30.13 in 10.0 mi NW 15.0 mph 18.4 mph N/A   Overcast
6:15 AM 28.2 °F 17.2 °F 23.4 °F 82% 30.13 in 10.0 mi NW 13.8 mph - N/A   Overcast
6:35 AM 28.2 °F 17.2 °F 23.5 °F 83% 30.13 in 10.0 mi NW 13.8 mph 20.7 mph N/A   Overcast
6:55 AM 28.0 °F 16.1 °F 23.4 °F 83% 30.14 in 10.0 mi NNW 16.1 mph - N/A   Overcast
7:15 AM 27.9 °F 15.1 °F 23.4 °F 83% 30.14 in 10.0 mi NW 18.4 mph 21.9 mph N/A   Overcast
7:35 AM 27.9 °F 15.9 °F 23.0 °F 82% 30.15 in 10.0 mi NNW 16.1 mph 25.3 mph N/A   Overcast
8:15 AM 27.5 °F 15.0 °F 23.0 °F 83% 30.16 in 10.0 mi NNW 17.3 mph 24.2 mph N/A   Overcast
8:35 AM 27.5 °F 15.9 °F 23.0 °F 83% 30.16 in 10.0 mi NW 15.0 mph 20.7 mph N/A   Overcast
8:55 AM 27.5 °F 15.4 °F 22.8 °F 83% 30.17 in 10.0 mi NNW 16.1 mph - N/A   Overcast
9:15 AM 27.5 °F 15.0 °F 22.8 °F 83% 30.18 in 10.0 mi NNW 17.3 mph 20.7 mph N/A   Overcast
9:35 AM 27.5 °F 16.8 °F 23.0 °F 83% 30.17 in 10.0 mi NNW 12.7 mph - N/A   Overcast
9:55 AM 27.5 °F 16.3 °F 23.0 °F 83% 30.18 in 10.0 mi NW 13.8 mph 18.4 mph N/A   Overcast
10:15 AM 27.5 °F 15.9 °F 23.0 °F 83% 30.19 in 10.0 mi NW 15.0 mph 19.6 mph N/A   Overcast
10:35 AM 27.7 °F 15.6 °F 23.0 °F 83% 30.19 in 10.0 mi NW 16.1 mph - N/A   Overcast
10:55 AM 28.0 °F 17.0 °F 23.0 °F 81% 30.19 in 10.0 mi NW 13.8 mph - N/A   Overcast
11:15 AM 28.0 °F 17.0 °F 23.0 °F 81% 30.19 in 10.0 mi NW 13.8 mph 20.7 mph N/A   Overcast
11:35 AM 28.6 °F 16.8 °F 23.2 °F 80% 30.19 in 10.0 mi NW 16.1 mph 19.6 mph N/A   Overcast
11:55 AM 28.9 °F 18.2 °F 23.2 °F 79% 30.20 in 10.0 mi NW 13.8 mph - N/A   Overcast
12:15 PM 28.9 °F 17.3 °F 23.2 °F 79% 30.20 in 10.0 mi NW 16.1 mph - N/A   Overcast
12:35 PM 29.1 °F 18.9 °F 23.7 °F 80% 30.19 in 10.0 mi NW 12.7 mph 19.6 mph N/A   Overcast
12:55 PM 30.4 °F 20.0 °F 24.1 °F 77% 30.18 in 10.0 mi NNW 13.8 mph - N/A   Overcast
1:15 PM 30.4 °F 20.0 °F 23.9 °F 77% 30.17 in 10.0 mi NW 13.8 mph - N/A   Overcast
1:35 PM 31.5 °F 21.8 °F 24.3 °F 75% 30.17 in 10.0 mi NW 12.7 mph 18.4 mph N/A   Overcast
1:55 PM 31.1 °F 21.4 °F 23.5 °F 74% 30.16 in 10.0 mi NW 12.7 mph - N/A   Overcast
2:15 PM 31.5 °F 20.5 °F 23.9 °F 74% 30.16 in 10.0 mi NW 16.1 mph 20.7 mph N/A   Overcast
2:35 PM 31.3 °F 20.3 °F 23.2 °F 72% 30.16 in 10.0 mi WNW 16.1 mph 23.0 mph N/A   Overcast
3:15 PM 29.3 °F 18.2 °F 23.0 °F 77% 30.17 in 10.0 mi NW 15.0 mph - N/A   Overcast
3:35 PM 28.4 °F 17.0 °F 22.3 °F 78% 30.17 in 10.0 mi NW 15.0 mph 18.4 mph N/A   Overcast
3:55 PM 28.2 °F 17.2 °F 21.7 °F 77% 30.17 in 10.0 mi NW 13.8 mph 21.9 mph N/A   Overcast
4:15 PM 28.4 °F 18.0 °F 22.3 °F 78% 30.17 in 10.0 mi NW 12.7 mph - N/A   Overcast
4:35 PM 28.8 °F 19.5 °F 21.9 °F 76% 30.17 in 10.0 mi NW 10.4 mph 17.3 mph N/A   Overcast
4:55 PM 28.4 °F 17.5 °F 22.1 °F 77% 30.17 in 10.0 mi NW 13.8 mph 20.7 mph N/A   Overcast
5:15 PM 28.2 °F 17.2 °F 22.1 °F 78% 30.18 in 10.0 mi NW 13.8 mph 19.6 mph N/A   Overcast
5:35 PM 27.5 °F 16.8 °F 22.1 °F 80% 30.18 in 10.0 mi NW 12.7 mph 17.3 mph N/A   Overcast
5:55 PM 27.9 °F 17.8 °F 21.7 °F 78% 30.19 in 10.0 mi NW 11.5 mph - N/A   Overcast
6:15 PM 27.9 °F 18.4 °F 21.6 °F 77% 30.19 in 10.0 mi NW 10.4 mph - N/A   Overcast
6:35 PM 27.9 °F 18.4 °F 21.4 °F 77% 30.20 in 10.0 mi NW 10.4 mph - N/A   Overcast
6:55 PM 27.9 °F 18.4 °F 21.4 °F 77% 30.20 in 10.0 mi NW 10.4 mph - N/A   Overcast
7:15 PM 27.9 °F 18.4 °F 21.4 °F 77% 30.20 in 10.0 mi NW 10.4 mph - N/A   Overcast
7:35 PM 27.5 °F 18.0 °F 21.6 °F 78% 30.21 in 10.0 mi NW 10.4 mph - N/A   Overcast
7:55 PM 27.5 °F 17.4 °F 21.7 °F 79% 30.21 in 10.0 mi NW 11.5 mph - N/A   Overcast
8:15 PM 27.5 °F 18.6 °F 21.2 °F 77% 30.21 in 10.0 mi NW 9.2 mph - N/A   Overcast
8:55 PM 26.6 °F 16.2 °F 21.2 °F 80% 30.21 in 10.0 mi NW 11.5 mph - N/A   Overcast
9:15 PM 26.6 °F 16.8 °F 20.7 °F 78% 30.21 in 10.0 mi NW 10.4 mph 16.1 mph N/A   Overcast
9:35 PM 26.4 °F 15.0 °F 20.7 °F 79% 30.21 in 10.0 mi NW 13.8 mph 17.3 mph N/A   Overcast
10:15 PM 26.2 °F 14.7 °F 20.8 °F 80% 30.21 in 10.0 mi NW 13.8 mph - N/A   Overcast
10:35 PM 26.1 °F 15.0 °F 20.7 °F 80% 30.20 in 10.0 mi NW 12.7 mph - N/A   Overcast
10:55 PM 26.1 °F 16.2 °F 20.7 °F 80% 30.20 in 10.0 mi NW 10.4 mph - N/A   Overcast
11:15 PM 26.1 °F 16.8 °F 20.7 °F 80% 30.20 in 10.0 mi NW 9.2 mph - N/A   Overcast
11:35 PM 25.7 °F 16.4 °F 20.7 °F 81% 30.20 in 10.0 mi NW 9.2 mph - N/A   Overcast